Back to catalog

STARLINK-37839

AliveCommunicationsSSO
NORAD 69496·PAYLOAD·🇺🇸 United States

Launched Jun 11, 2026 from Vandenberg Space Force Base

Loading…

Next Passes (next 24 hours)

TLE

FreshSource: CelesTrak SupGP

Epoch: Sep 14, 2026, 23:37 UTC

1 69496C 26131U   26257.98451389  .00051828  00000+0  16089-2 0  2572
2 69496  97.2834 278.9864 0001571  87.2261 357.4033 15.33412074    19

Track STARLINK-37839 in real time with AllMySat

Download on the App Store